Location: Poughquag
(41.6090°N, 73.6820°W)
Time: 06:07:04
(UTC-05:00)

STRAND 1 - Pass Details

Date: 30 November 2023
Orbit: 766 x 778 km, 98.4° (Epoch: 24 February)

Event Time Altitude Azimuth Distance (km) Brightness Sun altitude
Exits shadow 19:19:26 34° 321° (NW) 1,244 ? -31.9°
Maximum altitude 19:20:36 39° 291° (WNW) 1,139 ? -32.1°
Drops below altitude 10° 19:25:17 10° 223° (SW) 2,300 ? -33.0°
Sets 19:27:42 0° 216° (SW) 3,224 ? -33.4°
